EDT,Max TemperatureF,Mean TemperatureF,Min TemperatureF,Max Dew PointF,MeanDew PointF,Min DewpointF,Max Humidity, Mean Humidity, Min Humidity, Max Sea Level PressureIn, Mean Sea Level PressureIn, Min Sea Level PressureIn, Max VisibilityMiles, Mean VisibilityMiles, Min VisibilityMiles, Max Wind SpeedMPH, Mean Wind SpeedMPH, Max Gust SpeedMPH,PrecipitationIn, CloudCover, Events, WindDirDegrees
2013-5-1,78,59,40,46,42,36,100,61,22,30.43,30.37,30.30,10,10,9,12,4,28,0.00,0,,136
2013-5-2,79,60,41,46,43,38,92,60,28,30.43,30.36,30.30,10,10,10,15,6,18,0.00,2,,75
2013-5-3,71,58,44,42,37,33,82,54,26,30.48,30.39,30.31,10,10,10,16,7,21,0.00,0,,133
2013-5-4,75,56,37,46,41,35,100,63,25,30.34,30.26,30.17,10,10,10,9,2,22,0.00,0,,87
2013-5-5,76,58,39,45,41,34,96,59,21,30.23,30.17,30.09,10,10,10,16,4,20,0.00,0,,122
2013-5-6,77,59,40,44,38,25,89,53,17,30.19,30.11,30.02,10,10,10,16,6,22,0.00,0,,149
2013-5-7,79,59,38,51,43,35,86,56,25,30.12,30.07,30.01,10,10,10,17,5,22,0.00,0,,130
2013-5-8,80,62,44,61,52,44,93,66,39,30.13,30.07,30.00,10,10,8,26,6,33,0.11,2,Rain-Thunderstorm,152
2013-5-9,72,64,55,58,56,48,100,72,44,29.98,29.92,29.83,10,6,0,17,7,26,0.01,5,Fog-Rain,146
2013-5-10,69,61,53,56,54,51,93,76,58,29.99,29.91,29.76,10,10,9,13,4,16,0.02,6,Rain,57
2013-5-11,71,61,50,63,56,44,100,80,60,29.74,29.65,29.59,10,8,2,20,7,26,0.18,5,Rain,166
2013-5-12,60,50,40,46,35,23,86,56,25,29.74,29.67,29.63,10,10,10,17,7,31,T,4,,233
2013-5-13,54,46,38,38,30,25,92,62,32,30.04,29.88,29.75,10,10,10,17,7,30,0.01,6,Rain,242
2013-5-14,56,45,33,35,30,24,89,62,35,30.12,30.05,30.00,10,10,10,12,4,16,0.00,3,,103
2013-5-15,62,46,29,48,38,28,100,68,36,30.02,29.77,29.54,10,10,7,26,8,32,0.08,4,Rain-Thunderstorm,164
2013-5-16,75,61,46,47,40,31,100,60,20,29.92,29.68,29.59,10,10,9,25,10,37,0.00,4,,295
2013-5-17,63,53,42,44,40,37,89,66,43,30.22,30.08,29.93,10,10,10,16,6,20,0.00,4,,22
2013-5-18,70,53,36,44,38,30,100,62,23,30.31,30.25,30.21,10,10,10,2,3,5,0.00,0,,99
2013-5-19,67,54,40,54,49,37,93,76,58,30.26,30.17,30.07,10,10,3,18,8,28,0.14,5,Rain,153
2013-5-20,68,62,55,60,56,54,100,87,73,30.07,29.99,29.96,10,8,0,10,4,21,0.06,6,Fog-Rain,161
2013-5-21,66,61,56,60,56,53,100,82,63,29.96,29.89,29.81,10,6,0,24,7,29,0.72,7,Fog-Rain-Thunderstorm,9
2013-5-22,76,65,54,68,60,54,100,87,73,29.84,29.77,29.67,10,7,0,15,3,21,0.62,6,Fog-Rain-Thunderstorm,155
2013-5-23,78,69,60,67,62,56,100,81,61,29.73,29.71,29.66,10,6,1,20,4,26,0.48,5,Rain-Thunderstorm,106
2013-5-24,59,52,45,58,45,41,100,93,86,30.06,29.91,29.73,10,8,3,22,13,26,1.39,8,Rain,342
2013-5-25,46,44,42,43,41,38,92,88,83,30.05,30.03,29.96,10,8,5,35,20,43,0.76,8,Rain,346
2013-5-26,53,46,38,44,41,37,96,80,63,30.08,29.99,29.89,10,8,1,28,11,35,0.28,6,Rain,330
2013-5-27,69,51,33,44,36,32,100,63,25,30.16,30.10,30.04,10,7,2,21,5,28,0.00,0,,331
2013-5-28,72,54,36,47,42,37,100,66,31,30.21,30.15,30.06,10,10,9,16,7,22,0.00,0,,154
2013-5-29,69,61,53,61,56,48,100,86,72,30.05,29.97,29.87,10,7,1,17,9,,0.37,6,Rain,148
2013-5-30,87,71,54,66,61,53,97,74,51,30.05,30.00,29.93,10,9,2,10,3,22,0.00,2,,144
2013-5-31,92,75,58,69,62,56,100,66,32,30.04,29.96,29.86,10,10,7,17,4,23,T,1,Rain,142